User: anonymous   Login
Location: Unspecified
(0.0000°N, 0.0000°E)
Time: 23:16:54
(UTC+00:00)
Language:

STARS - Orbit

View from above orbital plane
View from above orbital plane
View from above satellite
View from above satellite

Ground track
Ground track

The orbit data is extracted from the following two-line orbital elements,

1 33498U 09002G   24201.49904878  .00006571  00000-0  76002-3 0  9993
2 33498  98.1179 116.3715 0008499 308.4806  51.5646 14.85868996834474
Epoch (UTC): 19 July 2024 11:58:37
Eccentricity: 0.0008499
inclination: 98.1179°
perigee height: 605 km
apogee height: 617 km
right ascension of ascending node: 116.3715°
argument of perigee: 308.4806°
revolutions per day: 14.85868996
mean anomaly at epoch: 51.5646°
orbit number at epoch: 83447

The dashed part of the orbit path shows where the satellite is in the earth's shadow,  

DLR